Regional Weather Roundup
Issued by NWS

Home | Current Version | Previous Version | Graphics & Text | Print | Product List | Glossary On
Versions: 1 2 3 4 5 6 7 8 9 10 11 12 13 14 15 16 17 18 19 20 21 22 23 24 25 26 27 28 29 30 31 32 33 34 35 36 37 38 39 40 41 42 43 44 45 46 47 48 49 50
000
ASUS43 KMKX 190400
RWRWI

WISCONSIN REGIONAL WEATHER ROUNDUP
NATIONAL WEATHER SERVICE MILWAUKEE/SULLIVAN WI
1100 PM CDT WED APR 18 2018

NOTE: "FAIR" INDICATES FEW OR NO CLOUDS BELOW 12,000 FEET WITH NO
SIGNIFICANT WEATHER AND/OR OBSTRUCTIONS TO VISIBILITY.

WIZ001-002-006>008-014>016-023>028-190500-
NORTHWEST WISCONSIN

CITY           SKY/WX    TMP DP  RH WIND       PRES   REMARKS
SUPERIOR ARPT  FAIR      26  20  76 CALM      30.24R
ASHLAND        FAIR      26  18  71 CALM      30.21R
HAYWARD        FAIR      29  15  56 N5        30.18R WCI  24
SIREN          FAIR      33  11  39 NE3       30.20R
CUMBERLAND     FAIR      32  12  43 NE7       30.17R WCI  26
RICE LAKE      FAIR      32  15  49 N12       30.18R WCI  23
CHETEK         FAIR      35  15  44 NE12G22   30.16R WCI  26
LADYSMITH      FAIR      34  15  46 N6        30.17R WCI  29
EAU CLAIRE     FAIR      35  21  56 NE7       30.14R WCI  29
MENOMONIE      FAIR      36  19  50 N9        30.16R WCI  29
NEW RICHMOND   FAIR      32  14  47 NE7       30.17R WCI  26
OSCEOLA        FAIR      34  14  44 NE6       30.21R WCI  29
$$

WIZ003>005-009-010-017-018-190500-
NORTH CENTRAL WISCONSIN

CITY           SKY/WX    TMP DP  RH WIND       PRES   REMARKS
MANITOWISH WTR FAIR      28  12  50 NW3       30.13R
ARBOR VITAE    FAIR      29  19  64 N5        30.12R WCI  24
WOODRUFF       FAIR      29  19  64 N5        30.12R WCI  24
RHINELANDER    FAIR      31  19  61 N6        30.11R WCI  25
EAGLE RIVER    FAIR      29  17  60 N6        30.11R WCI  23
LAND O LAKES   FAIR      30  16  56 N7        30.12R WCI  23
PHILLIPS       FAIR      31  13  47 N3        30.13R
TOMAHAWK       FAIR      31  19  62 N6        30.11S WCI  25
MEDFORD        FAIR      32  18  55 NE12      30.10R WCI  23
MERRILL          N/A     32  18  55 N7        30.10R WCI  26
$$

WIZ029-030-035-036-043>047-190500-
CENTRAL WISCONSIN

CITY           SKY/WX    TMP DP  RH WIND       PRES   REMARKS
WAUSAU         FAIR      34  19  54 N10G18    30.07R WCI  26
MOSINEE        FAIR      34  23  64 N13G21    30.08R WCI  25
MARSHFIELD     FAIR      35  21  56 NE14      30.07R WCI  26
STEVENS POINT  FAIR      33  22  63 N10G16    30.06R WCI  25
WAUPACA        FAIR      37  24  60 N8        30.05R WCI  30
WAUTOMA        FAIR      32  27  81 N8        30.05R WCI  25
WISC RAPIDS    FAIR      35  20  54 NE13      30.07R WCI  26
CAMP DOUGLAS   FAIR      26  26  99 CALM      30.07R
$$

WIZ011>013-019>022-031-037>040-048>050-190500-
NORTHEAST WISCONSIN

CITY           SKY/WX    TMP DP  RH WIND       PRES   REMARKS
ANTIGO         FAIR      30  19  63 N10       30.08R WCI  21
SHAWANO        FAIR      36  25  64 N13       30.06S WCI  27
OCONTO         FAIR      34  21  59 N9        30.06R WCI  27
STURGEON BAY   FAIR      33  24  69 N14       30.05R WCI  23
GREEN BAY      FAIR      35  24  64 N15       30.04R WCI  25
MANITOWOC      FAIR      35  24  64 N12G20    30.01R WCI  27
APPLETON       PTCLDY    34  21  60 N17       30.00R WCI  23
CLINTONVILLE   FAIR      35  22  59 N10       30.06R WCI  27
OSHKOSH        FAIR      35  25  66 NE20      30.01R WCI  24
$$

WIZ032>034-041-042-053>061-190500-
SOUTHWEST WISCONSIN

CITY           SKY/WX    TMP DP  RH WIND       PRES   REMARKS
LA CROSSE      FAIR      32  30  92 N7        30.10R WCI  26
SPARTA         FOG       29  29 100 CALM      30.09R VSB 3/4
VIROQUA        CLOUDY    31  31 100 NW7       30.05R WCI  24
BOSCOBEL       CLOUDY    33  31  92 CALM      30.09R
PRAIRIE DU CHI LGT SNOW  32  30  93 W5        30.09R WCI  27
PLATTEVILLE    CLOUDY    32  32 100 NW10      30.05R WCI  23
$$

WIZ056-057-062-063-064-067-068-190500-
SOUTH CENTRAL WISCONSIN

CITY           SKY/WX    TMP DP  RH WIND       PRES   REMARKS
REEDSBURG      CLOUDY    31  31 100 CALM      30.05R
BARABOO/DELLS    N/A     31  31  98 NW3       30.04R
LONE ROCK      LGT SNOW  32  32 100 NW6       30.06R FOG     WCI  26
MINERAL POINT  LGT SNOW  32  32 100 NW10      30.04R WCI  24
MADISON        LGT SNOW  32  30  92 N12G18    30.02R FOG     WCI  23
MIDDLETON      CLOUDY    33  32  96 N12       30.03R WCI  24
WATERTOWN      LGT SNOW  31  31 100 N6        29.99R WCI  26
MONROE         LGT SNOW  32  32 100 NW10G17   29.99R WCI  24
JANESVILLE     FLURRIES  34  34 100 N9        29.99R WCI  26
$$

WIZ051-052-058>065-066-070>072-190500-
SOUTHEAST WISCONSIN

CITY           SKY/WX    TMP DP  RH WIND       PRES   REMARKS
MILWAUKEE      LGT SNOW  34  33  96 N10       29.96R FOG     WCI  26
WAUKESHA       LGT RAIN  32  30  93 N6        29.98R WCI  26
MILWAUKEE/TIMM LGT SNOW  32  30  93 N9        29.98R WCI  24
RACINE         LGT SNOW  34  32  92 N15       29.96R FOG     WCI  24
BURLINGTON     LGT SNOW  32  30  93 N8        29.96R WCI  25
KENOSHA        SLEET     34  31  88 N9        29.94R WCI  27
FOND DU LAC    FAIR      34  26  72 N14       30.02R WCI  25
SHEBOYGAN      FAIR      35  27  72 N14G25    29.98R WCI  26
WEST BEND      CLOUDY    32  32 100 N5        29.98R WCI  27
JUNEAU         CLOUDY    33  28  83 N9G16     30.01R WCI  25
$$

LSZ147-162-190500-
LAKE SUPERIOR

STATION/POSITION TIME  TEMP    WIND        PRES    WAVE
                       AIR SEA DIR/SP/G            HT/PER
                 (UTC) (F)     (DEG/KT/KT) (MB)    (FT/S)
DEVILS ISLAND    0300   37     340/  8/  9 1023.7R
SAXON HARBOR     0340   26      CALM  /  1 1022.4R
$$

LMZ867-665-643>646-190500-
LAKE MICHIGAN

STATION/POSITION TIME  TEMP    WIND        PRES    WAVE
                       AIR SEA DIR/SP/G            HT/PER
                 (UTC) (F)     (DEG/KT/KT) (MB)    (FT/S)
NORTHPORT PIER   0340   34                 1017.3R
KEWAUNEE LAKESHO 0330   35     350/  9/ 14 1015.9R
SHEBOYGAN LAKESH 0300   36      10/ 26/ 28 1015.2R
PORT WASHINGTON  0330   34      10/  7/ 12 1016.3R
MILWAUKEE LAKESH 0330   33      10/ 14/ 17   N/A
KENOSHA   LAKESH 0300   35                 1013.5
$$

TC  - TEMPERATURE IN CELSIUS
VSB - VISIBILITY IN STATUTE MILES
WCI - WIND CHILL INDEX
HX  - HEAT INDEX




USA.gov is the U.S. government's official web portal to all federal, state and local government web resources and services.